Regional Weather Roundup
Issued by NWS

Home | Current Version | Previous Version | Text Only | Print | Product List | Glossary On
Versions: 1 2 3 4 5 6 7 8 9 10 11 12 13 14 15 16 17 18 19 20 21 22 23 24 25 26 27 28 29 30 31 32 33 34 35 36 37 38 39 40 41 42 43 44 45 46 47 48 49 50
000
ASUS45 KABQ 211310
RWRNM
NEW MEXICO REGIONAL WEATHER ROUNDUP
NATIONAL WEATHER SERVICE ALBUQUERQUE NM
600 AM MST SUN JAN 21 2018

NOTE: "FAIR" MEANS FEW OR NO CLOUDS BELOW 12,000 FEET AGL WITH NO
       SIGNIFICANT WEATHER OR OBSTRUCTIONS TO VISION.

      THIS PRODUCT IS RELEASED AS TWO VERSIONS.  ONE VERSION NEAR
      THE TOP OF THE HOUR CONTAINING PRELIMINARY DATA FROM ALBUQUERQUE
      AND OTHER STATIONS.  A FINAL VERSION WITH ADDITIONAL DATA IS
      ISSUED ABOUT 10 MINUTES AFTER THE HOUR.

NMZ501-503-504-510>518-211400-
NORTHWEST PLATEAU/NORTHCENTRAL MOUNTAINS

CITY           SKY/WX    TMP DP  RH WIND       PRES   REMARKS
FARMINGTON     CLOUDY    26  24  92 W7        29.76S WCI  18
LOS ALAMOS     FAIR      24  18  78 S10       29.72F WCI  13
SANTA FE       CLOUDY    26  20  77 SW16      29.75F WCI  14
TAOS           MOCLDY    19  17  92 CALM      29.72F
ANGEL FIRE     MOCLDY    21  13  71 W10G17    29.66F WCI  10

$$
NMZ402-403-502-505>509-211400-
WESTCENTRAL MOUNTAINS/SOUTHWEST MOUNTAINS

CITY           SKY/WX    TMP DP  RH WIND       PRES   REMARKS
GALLUP         CLOUDY    24  19  81 W20G29    29.83R WCI  10
GRANTS         FLURRIES  27  19  71 W6G17     29.80F WCI  20
SILVER CITY    FAIR      29  22  73 W15       29.99R WCI  18

$$
NMZ407-409-411-412-211400-
SOUTHERN DESERTS

CITY           SKY/WX    TMP DP  RH WIND       PRES   REMARKS
DEMING         FAIR      35  22  58 W16       30.01R WCI  25
LAS CRUCES     FAIR      37  20  49 W21G35    29.97R WCI  27
HOLLOMAN AFB     N/A     38  14  36 SW6       29.97R WCI  34
ALAMOGORDO     FAIR      37  14  38 SW8       29.96S WCI  31
T OR C         FAIR      36  12  37 SW10      29.91R WCI  28

$$
NMZ519>523-211400-
CENTRAL VALLEYS/CENTRAL HIGHLANDS

CITY           SKY/WX    TMP DP  RH WIND       PRES   REMARKS
ALBUQUERQUE    FAIR      31  18  58 SW10      29.81F WCI  22
DOUBLE EAGLE   MOCLDY    27  19  74 W10       29.81  WCI  17
MORIARTY ARPT  FAIR      26  22  83 W7        29.79F WCI  19
CLINES CORNERS FAIR      20  17  88 W17       29.77R WCI   5
BELEN          FAIR      27  19  72 SW8       29.84S WCI  18
SOCORRO        FAIR      32  10  39 SE3       29.87R

$$
NMZ524>526-539-540-211400-
SOUTHCENTRAL MOUNTAINS

CITY           SKY/WX    TMP DP  RH WIND       PRES   REMARKS
RUIDOSO        NOT AVBL

$$
NMZ527>531-211400-
NORTHEAST HIGHLANDS/NORTHEAST PLAINS

CITY           SKY/WX    TMP DP  RH WIND       PRES   REMARKS
LAS VEGAS      FAIR      27  15  61 SW18      29.69S WCI  14
RATON          FAIR      31  10  41 SW12      29.63F WCI  22
CLAYTON        MOCLDY    35  22  58 N18       29.68R WCI  24

$$
NMZ532>537-211400-
EASTCENTRAL PLAINS

CITY           SKY/WX    TMP DP  RH WIND       PRES   REMARKS
TUCUMCARI      CLOUDY    45  27  49 W15       29.73R
CANNON AFB     FAIR      40  29  67 W9        29.80R WCI  33
CLOVIS AIRPORT FAIR      39  27  62 W10       29.79R WCI  32

$$
NMZ028-029-538-211400-
SOUTHEAST PLAINS

CITY           SKY/WX    TMP DP  RH WIND       PRES   REMARKS
ROSWELL        FAIR      47  29  49 SW13      29.83R
ARTESIA        FAIR      48  30  49 VRB5      29.85R
CARLSBAD       FAIR      50  32  50 W32G39    29.84R
HOBBS          CLEAR     36  27  69 SW8       29.84R WCI  29


$$




USA.gov is the U.S. government's official web portal to all federal, state and local government web resources and services.